Date String (YYYY-MM-DD hh:mm:ss) UTC,Instrument flags,Ambient pressure (hPa),Sample flow (lpm),Bypass flow (lpm),Sample temperature (°C),Ambient temperature (°C),ASC tube jacket temperature (°C),LED temperature (°C),Box temperature (°C),Sample RH (%),Span deviation,Mass concentration (μg/m³),Mass concentration (μg/m³),Mass concentration (μg/m³)
DateTimeUTC,F1_M11,P_M11,Q1_M11,Q2_M11,T1_M11,T2_M11,T3_M11,T4_M11,T5_M11,U1_M11,ZSPAN_M11,X0_M11,X2_M11,X1_M11
2021-11-25 16:00:00,,0834.4,4.99,0.00,22.9,22.2,00.0,31.8,24.7,11.5,0000.0,0004.63,0003.61,0003.42
2021-11-25 16:01:00,,0834.4,5.00,0.00,22.9,22.2,00.0,31.8,24.7,11.8,0000.0,0004.56,0003.58,0003.39
2021-11-25 16:02:00,,0834.4,5.01,0.00,22.9,22.2,00.0,31.8,24.7,11.9,0000.0,0004.49,0003.54,0003.34
2021-11-25 16:03:00,,0834.4,4.99,0.00,22.9,22.2,00.0,31.9,24.8,12.9,0000.0,0004.32,0003.50,0003.32
2021-11-25 16:04:00,,0834.4,5.01,0.00,23.0,22.2,00.0,31.9,24.8,13.0,0000.0,0004.34,0003.50,0003.31
2021-11-25 16:05:00,,0834.4,4.99,0.00,23.0,22.3,00.0,31.9,24.8,12.5,0000.0,0004.19,0003.48,0003.31
2021-11-25 16:06:00,,0834.4,5.01,0.00,23.0,22.3,00.0,31.9,24.8,11.8,0000.0,0004.08,0003.45,0003.28
2021-11-25 16:07:00,,0834.4,5.01,0.00,23.0,22.3,00.0,31.9,24.9,12.1,0000.0,0003.97,0003.40,0003.24
2021-11-25 16:08:00,,0834.4,4.99,0.00,23.0,22.4,00.0,31.9,24.9,12.3,0000.0,0003.86,0003.35,0003.19
2021-11-25 16:09:00,,0834.4,5.01,0.00,23.0,22.4,00.0,31.9,24.9,12.2,0000.0,0003.79,0003.31,0003.15
2021-11-25 16:10:00,,0834.5,5.00,0.00,23.1,22.4,00.0,32.0,24.9,12.3,0000.0,0003.75,0003.29,0003.14
2021-11-25 16:11:00,,0834.4,5.00,0.00,23.1,22.4,00.0,32.0,24.9,12.5,0000.0,0003.74,0003.31,0003.16
2021-11-25 16:12:00,,0834.4,5.00,0.00,23.1,22.4,00.0,32.0,25.0,13.1,0000.0,0003.66,0003.31,0003.17
2021-11-25 16:13:00,,0834.4,5.00,0.00,23.1,22.4,00.0,32.0,25.0,13.0,0000.0,0003.55,0003.30,0003.17
2021-11-25 16:14:00,,0834.4,5.00,0.00,23.1,22.5,00.0,32.0,25.0,12.7,0000.0,0003.57,0003.31,0003.17
2021-11-25 16:15:00,,0834.4,5.00,0.00,23.2,22.5,00.0,32.0,25.0,12.7,0000.0,0003.55,0003.30,0003.17
2021-11-25 16:16:00,,0834.5,5.01,0.00,23.2,22.5,00.0,32.1,25.0,12.6,0000.0,0003.61,0003.31,0003.18
2021-11-25 16:17:00,,0834.5,5.00,0.00,23.2,22.5,00.0,32.1,25.0,12.5,0000.0,0003.88,0003.36,0003.22
2021-11-25 16:18:00,,0834.5,5.01,0.00,23.2,22.5,00.0,32.1,25.1,12.4,0000.0,0004.14,0003.41,0003.26
2021-11-25 16:19:00,,0834.4,5.00,0.00,23.2,22.5,00.0,32.1,25.0,11.9,0000.0,0004.24,0003.44,0003.27
2021-11-25 16:20:00,,0834.4,4.99,0.00,23.2,22.6,00.0,32.1,25.1,11.3,0000.0,0005.02,0003.42,0003.25
2021-11-25 16:21:00,,0834.4,5.01,0.00,23.2,22.6,00.0,32.1,25.1,11.2,0000.0,0005.51,0003.36,0003.21
2021-11-25 16:22:00,,0834.5,4.99,0.00,23.3,22.6,00.0,32.2,25.1,11.1,0000.0,0005.41,0003.30,0003.14
2021-11-25 16:23:00,,0834.5,5.01,0.00,23.3,22.6,00.0,32.2,25.1,11.2,0000.0,0005.36,0003.25,0003.07
2021-11-25 16:24:00,,0834.4,5.00,0.00,23.3,22.6,00.0,32.2,25.1,12.3,0000.0,0005.36,0003.24,0003.06
2021-11-25 16:25:00,,0834.4,5.00,0.00,23.3,22.6,00.0,32.2,25.2,12.9,0000.0,0005.38,0003.26,0003.11
2021-11-25 16:26:00,,0834.4,5.00,0.00,23.3,22.7,00.0,32.2,25.2,12.9,0000.0,0005.37,0003.29,0003.15
2021-11-25 16:27:00,,0834.4,4.99,0.00,23.4,22.7,00.0,32.2,25.2,11.6,0000.0,0005.39,0003.27,0003.14
2021-11-25 16:28:00,,0834.4,5.00,0.00,23.4,22.7,00.0,32.3,25.2,12.6,0000.0,0005.31,0003.26,0003.12
2021-11-25 16:29:00,,0834.4,5.01,0.00,23.4,22.7,00.0,32.3,25.2,12.9,0000.0,0005.13,0003.28,0003.13
2021-11-25 16:30:00,,0834.4,4.99,0.00,23.4,22.7,00.0,32.3,25.3,13.0,0000.0,0005.17,0003.31,0003.18
2021-11-25 16:31:00,,0834.4,5.01,0.00,23.4,22.8,00.0,32.3,25.3,12.9,0000.0,0004.84,0003.41,0003.25
2021-11-25 16:32:00,,0834.4,5.00,0.00,23.4,22.8,00.0,32.3,25.3,12.6,0000.0,0004.31,0003.50,0003.33
2021-11-25 16:33:00,,0834.4,5.01,0.00,23.5,22.8,00.0,32.4,25.3,13.0,0000.0,0004.44,0003.60,0003.43
2021-11-25 16:34:00,,0834.4,5.00,0.00,23.5,22.8,00.0,32.4,25.4,13.6,0000.0,0004.69,0003.73,0003.54
2021-11-25 16:35:00,,0834.4,5.00,0.00,23.5,22.8,00.0,32.4,25.4,13.4,0000.0,0005.64,0003.84,0003.64
2021-11-25 16:36:00,,0834.4,5.00,0.00,23.5,22.8,00.0,32.4,25.4,13.2,0000.0,0005.81,0003.89,0003.67
2021-11-25 16:37:00,,0834.4,4.99,0.00,23.5,22.9,00.0,32.4,25.4,13.5,0000.0,0006.43,0003.94,0003.70
2021-11-25 16:38:00,,0834.3,5.01,0.00,23.5,22.9,00.0,32.4,25.4,13.6,0000.0,0007.07,0004.01,0003.76
2021-11-25 16:39:00,,0834.3,5.00,0.00,23.6,22.9,00.0,32.5,25.5,13.4,0000.0,0007.29,0004.07,0003.82
2021-11-25 16:40:00,,0834.3,5.01,0.00,23.6,22.9,00.0,32.5,25.5,13.3,0000.0,0007.52,0004.13,0003.85
2021-11-25 16:41:00,,0834.3,4.99,0.00,23.6,22.9,00.0,32.5,25.5,13.3,0000.0,0007.55,0004.15,0003.88
2021-11-25 16:42:00,,0834.3,4.99,0.00,23.6,22.9,00.0,32.5,25.5,13.1,0000.0,0007.53,0004.17,0003.90
2021-11-25 16:43:00,,0834.3,5.00,0.00,23.6,23.0,00.0,32.5,25.5,13.3,0000.0,0007.54,0004.22,0003.95
2021-11-25 16:44:00,,0834.3,5.01,0.00,23.6,23.0,00.0,32.5,25.5,13.3,0000.0,0007.86,0004.26,0003.99
2021-11-25 16:45:00,,0834.3,4.99,0.00,23.7,23.0,00.0,32.6,25.5,13.0,0000.0,0008.05,0004.27,0004.01
2021-11-25 16:46:00,,0834.3,5.01,0.00,23.7,23.0,00.0,32.6,25.5,12.6,0000.0,0007.77,0004.26,0004.00
2021-11-25 16:47:00,,0834.3,4.99,0.00,23.7,23.0,00.0,32.6,25.6,12.4,0000.0,0007.70,0004.26,0003.99
2021-11-25 16:48:00,,0834.3,5.01,0.00,23.7,23.0,00.0,32.6,25.6,12.4,0000.0,0007.69,0004.25,0003.97
2021-11-25 16:49:00,,0834.3,5.00,0.00,23.7,23.0,00.0,32.6,25.6,12.0,0000.0,0008.54,0004.21,0003.94
2021-11-25 16:50:00,,0834.3,5.00,0.00,23.8,23.0,00.0,32.6,25.6,11.5,0000.0,0008.67,0004.18,0003.90
2021-11-25 16:51:00,,0834.3,5.01,0.00,23.8,23.1,00.0,32.7,25.6,11.6,0000.0,0008.48,0004.12,0003.87
2021-11-25 16:52:00,,0834.3,5.00,0.00,23.8,23.1,00.0,32.7,25.7,11.2,0000.0,0008.44,0004.08,0003.83
2021-11-25 16:53:00,,0834.3,5.01,0.00,23.8,23.1,00.0,32.7,25.7,11.4,0000.0,0008.41,0004.04,0003.79
2021-11-25 16:54:00,,0834.3,4.99,0.00,23.8,23.1,00.0,32.7,25.7,11.6,0000.0,0008.36,0003.99,0003.74
2021-11-25 16:55:00,,0834.2,4.99,0.00,23.8,23.2,00.0,32.7,25.7,11.8,0000.0,0008.18,0003.97,0003.70
2021-11-25 16:56:00,,0834.3,5.01,0.00,23.8,23.2,00.0,32.7,25.7,11.6,0000.0,0008.02,0003.93,0003.65
2021-11-25 16:57:00,,0834.3,5.01,0.00,23.9,23.2,00.0,32.8,25.7,11.4,0000.0,0007.93,0003.87,0003.61
2021-11-25 16:58:00,,0834.3,4.99,0.00,23.9,23.2,00.0,32.8,25.8,11.5,0000.0,0007.86,0003.83,0003.58
2021-11-25 16:59:00,,0834.2,5.01,0.00,23.9,23.2,00.0,32.8,25.8,11.1,0000.0,0007.76,0003.78,0003.53
